Regional Weather Roundup
Issued by NWS

Home | Current Version | Previous Version | Graphics & Text | Print | Product List | Glossary On
Versions: 1 2 3 4 5 6 7 8 9 10 11 12 13 14 15 16 17 18 19 20 21 22 23 24 25 26 27 28 29 30 31 32 33 34 35 36 37 38 39 40 41 42 43 44 45 46 47 48 49 50
000
ASUS43 KLSX 310407
RWRMO

WEATHER SUMMARY FOR MISSOURI
NATIONAL WEATHER SERVICE SPRINGFIELD MO
1100 PM CDT SAT JUL 30 2016

NOTE: "FAIR" INDICATES FEW OR NO CLOUDS BELOW 12,000 FEET WITH NO
       SIGNIFICANT WEATHER AND/OR OBSTRUCTIONS TO VISIBILITY.
       CURRENT SKY AND/OR WEATHER CONDITIONS ARE NOT AVAILABLE FOR
       CHILLICOTHE AND FARMINGTON.

MOZ001>031-035>038-043-044-053-054-310500-
...NORTHERN AND WESTERN MISSOURI...

CITY           SKY/WX    TMP DP  RH WIND       PRES   REMARKS
KANSAS CTY INT CLEAR     76  65  68 SE9       29.99R
KANSAS C DTWN  PTCLDY    78  67  68 E5        29.98R
LEE`S SUMMIT   CLEAR     76  67  73 SE6       30.00R
ST JOSEPH      CLEAR     74  66  76 SE6       29.99R
CHILLICOTHE      N/A     69  66  90 CALM      30.00R
KIRKSVILLE     MOCLDY    68  64  87 CALM      30.01R

$$
MOZ066>068-077>081-088>096-101>105-310500-
...SOUTHWEST MISSOURI...

CITY           SKY/WX    TMP DP  RH WIND       PRES   REMARKS
SPRINGFIELD    CLEAR     75  69  81 SE7       30.02R
JOPLIN         CLEAR     75  71  87 SE3       30.00R
BRANSON        PTCLDY    72  70  94 CALM      30.05R

$$
MOZ032>034-039>042-045>050-055>058-069>072-310500-
...CENTRAL MISSOURI...

CITY           SKY/WX    TMP DP  RH WIND       PRES   REMARKS
COLUMBIA       CLEAR     73  67  81 CALM      30.01R
JEFFERSON CITY CLEAR     70  66  87 CALM      29.99R
ROLLA          CLEAR     68  65  90 CALM      30.01R
SEDALIA        CLEAR     74  67  78 CALM      30.01R
WHITEMAN AFB   CLEAR     73  68  86 SE5       29.98S
OSAGE BEACH    CLEAR     71  69  93 CALM      30.02R

$$
MOZ051-052-059>065-310500-
...EAST CENTRAL MISSOURI...

CITY           SKY/WX    TMP DP  RH WIND       PRES   REMARKS
ST LOUIS INTL  CLEAR     76  67  73 N5        29.99R
SPIRIT OF STL  CLEAR     70  68  93 CALM      29.98R
ST CHARLES     CLEAR     73  69  87 CALM      29.98R

$$
MOZ072>076-082>087-097>100-106>115-310500-
...SOUTH CENTRAL AND SOUTHEAST MISSOURI...

CITY           SKY/WX    TMP DP  RH WIND       PRES   REMARKS
CAPE GIRARDEAU MOCLDY    75  73  93 CALM      29.99R
FARMINGTON     PTCLDY    72  70  93 CALM      30.02R
POPLAR BLUFF   CLOUDY    77  75  93 CALM      29.99R
WEST PLAINS    CLOUDY    75  71  87 CALM      30.06R

$$


USA.gov is the U.S. government's official web portal to all federal, state and local government web resources and services.